Theta_e
309 311 312 311 309 310 309 310 311 310 311 311 310 309 310 308 305 305 304 304 304 303 305 305 306 306 305 306 308 309 311 312 313 315 317 321 323 321 323 325 326 326 326 325
309 311 311 310 309 311 312 312 311 310 310 310 310 310 309 309 307 308 309 307 306 305 301 301 303 304 304 306 307 309 310 311 313 314 317 318 318 320 321 322 324 322 322 322
311 312 310 311 311 312 311 311 311 312 311 308 308 310 309 309 307 307 306 307 307 307 306 299 299 302 303 305 306 308 310 310 312 314 315 315 315 313 313 315 317 319 321 318
311 311 312 311 312 311 312 309 311 312 313 314 310 315 313 311 311 308 309 307 307 306 302 300 299 300 302 304 305 307 309 310 312 312 314 315 314 306 309 313 314 316 316 317
312 311 312 312 312 310 312 310 311 312 311 311 312 313 314 311 311 311 311 309 306 304 302 300 299 301 302 303 304 306 308 309 310 311 313 313 310 310 311 309 309 310 310 312
310 309 310 312 311 310 309 311 310 308 309 315 311 313 313 311 311 311 309 308 306 305 301 299 299 301 301 303 304 306 308 307 309 310 310 310 311 308 306 304 305 303 305 305
312 311 310 310 311 310 311 313 316 314 314 317 310 312 315 312 309 309 310 309 306 303 300 297 297 299 300 302 304 306 307 304 308 308 307 306 309 308 308 307 304 300 300 299
315 316 310 308 312 313 310 312 315 313 315 314 311 316 315 309 308 306 305 304 305 304 300 297 297 299 300 302 304 306 306 304 304 305 304 304 306 304 302 302 300 297 299 298
314 315 309 308 310 312 311 313 312 314 298 308 313 311 310 309 308 308 308 306 305 302 300 297 297 299 300 302 304 306 305 304 304 303 303 302 302 301 300 299 297 294 292 291
313 316 309 310 309 309 311 309 314 311 313 312 315 313 316 314 312 309 310 309 307 303 299 296 296 298 300 302 304 305 304 302 302 301 301 301 300 300 298 298 295 293 290 289
311 313 312 310 310 312 311 312 311 312 311 313 312 318 309 312 311 311 311 308 306 303 298 295 295 298 300 301 303 303 302 303 301 301 300 298 297 297 298 299 295 291 289 288
312 313 311 311 309 307 310 312 311 316 313 312 313 319 310 311 310 309 309 307 303 301 297 294 295 296 297 299 301 301 301 301 301 299 298 297 297 297 295 293 292 290 287 287
313 317 318 318 315 310 311 310 312 312 311 316 315 320 305 306 308 306 308 305 301 300 296 294 292 293 295 296 297 298 299 300 301 298 296 295 295 294 293 292 291 289 287 286
314 313 317 323 319 313 312 310 310 314 318 317 317 318 314 310 309 308 305 304 302 299 297 293 292 292 294 294 295 296 296 297 298 296 295 294 293 293 292 292 290 287 286 286
316 317 312 313 313 312 312 313 312 313 315 319 319 317 316 314 310 309 307 307 302 300 297 295 294 292 292 293 293 294 295 295 296 295 293 292 293 292 292 290 288 286 285 285
316 315 315 319 314 312 315 313 311 313 314 315 317 317 316 312 311 311 309 309 308 303 300 298 295 293 292 292 293 293 293 293 294 293 292 292 291 290 289 287 286 285 284 284
316 314 316 321 317 318 317 317 316 311 312 313 315 314 314 313 309 310 309 308 307 305 303 301 298 295 294 293 293 292 292 291 292 292 291 291 290 289 287 286 285 284 283 284
310 311 315 321 316 322 317 311 316 316 315 311 311 313 313 312 309 307 306 308 306 305 303 301 299 298 297 295 293 293 291 290 290 290 290 290 289 287 286 285 284 283 284 284
313 312 315 318 320 318 318 309 310 314 317 313 313 312 312 311 308 311 303 304 305 302 300 299 300 300 298 295 293 292 290 289 289 288 288 288 288 286 285 284 283 283 283 283
310 312 315 317 319 320 313 304 304 310 319 307 311 313 312 309 310 313 303 299 298 296 295 295 297 297 295 292 292 290 288 288 287 287 287 287 287 286 285 284 283 284 284 283
310 310 314 316 318 315 306 301 303 316 313 296 302 309 301 307 306 299 296 297 294 293 294 294 294 292 292 291 290 288 287 287 288 288 287 287 286 286 285 284 284 283 283 283
310 312 313 312 314 315 299 302 309 306 296 294 298 300 298 299 298 297 295 295 294 292 292 291 290 290 290 290 290 287 287 287 288 288 287 287 286 286 285 285 284 283 283 282
308 306 306 307 308 301 298 302 300 297 298 295 297 297 298 298 298 297 295 293 292 287 289 289 289 288 287 288 289 287 287 287 287 287 287 286 286 286 286 285 284 284 283 283
302 303 306 305 305 307 301 298 295 294 295 294 293 293 294 296 295 294 289 291 291 287 288 289 288 287 287 287 288 289 287 287 287 287 286 286 286 285 285 285 285 284 283 284
300 300 303 304 303 300 299 296 297 295 293 291 290 291 293 292 290 289 288 286 287 286 286 289 288 286 286 288 289 289 288 288 287 287 287 287 286 286 285 286 286 286 287 286
299 302 305 306 302 302 302 300 296 295 294 290 290 290 289 291 291 287 285 285 284 284 286 286 285 284 284 286 287 288 289 290 290 288 287 287 286 286 285 285 283 283 284 284
Wind_Speed
3 3 8 15 8 3 4 4 5 4 4 4 9 9 15 9 6 10 11 12 14 15 22 25 32 31 28 27 26 25 24 21 22 22 23 22 22 21 20 22 25 24 27 29
4 8 11 5 5 4 2 2 6 5 4 5 8 12 13 14 9 13 17 16 17 14 9 14 28 33 35 34 31 28 26 26 27 27 27 24 25 22 23 21 21 23 27 29
8 4 3 8 4 5 5 6 5 8 4 4 6 7 9 9 7 10 13 17 15 17 16 10 17 31 35 37 36 33 29 29 28 29 28 23 24 22 22 23 25 25 23 24
7 3 5 4 5 8 7 9 6 4 2 5 1 8 6 6 11 8 15 14 16 15 8 7 16 23 35 40 36 31 29 30 31 30 30 32 32 21 22 28 26 26 25 24
8 8 6 6 7 8 6 5 6 3 4 3 1 5 4 1 7 14 18 15 11 8 9 10 14 26 29 31 33 30 28 30 31 32 34 34 29 29 29 30 28 27 26 25
4 1 6 8 2 5 6 5 5 4 1 5 11 8 4 6 7 7 7 10 6 4 7 7 13 18 23 27 29 31 32 31 32 32 34 36 35 34 34 33 32 30 29 28
2 5 3 4 5 2 3 5 2 4 1 7 2 5 11 10 9 8 10 6 4 4 2 6 8 13 21 26 27 28 30 29 34 34 35 35 36 37 38 40 39 36 33 32
8 7 12 7 11 8 9 8 6 7 4 5 1 8 6 9 10 7 8 5 1 6 5 4 6 12 18 24 26 29 31 29 33 34 34 35 36 37 37 39 39 38 39 38
6 7 1 2 2 12 6 7 5 3 2 2 5 8 8 9 11 11 5 4 5 8 5 5 6 13 18 21 25 28 31 30 34 36 36 36 36 35 36 38 36 36 38 41
5 3 1 2 3 3 6 7 3 1 3 5 5 6 7 6 8 9 4 6 4 4 2 4 6 13 18 23 27 27 29 29 32 33 36 37 37 36 36 38 38 38 40 41
5 4 1 2 7 11 3 5 1 4 5 5 3 8 7 8 8 6 3 3 4 4 4 5 5 13 18 22 25 29 30 32 35 36 35 33 35 35 37 40 41 40 42 43
8 4 5 9 2 2 0 5 7 4 4 4 2 16 4 4 3 2 2 3 4 4 5 6 8 14 18 23 28 32 32 32 34 35 34 34 34 36 36 37 39 41 45 44
9 5 1 3 2 1 5 6 13 4 3 12 5 14 3 3 4 6 4 5 4 3 5 4 5 9 18 23 27 29 33 35 38 37 36 34 34 36 37 39 39 42 44 43
4 5 8 11 4 6 7 9 13 18 9 10 19 26 13 3 5 5 7 5 6 6 5 6 7 7 15 21 26 29 31 34 36 36 35 35 37 37 37 37 40 45 45 45
5 7 5 8 1 0 3 9 18 20 30 14 32 17 32 16 9 11 6 6 7 7 8 8 8 8 15 20 26 28 31 35 36 36 35 35 36 36 36 38 42 46 46 45
5 4 3 13 7 8 5 7 16 25 26 21 27 22 31 7 5 4 9 9 10 8 9 10 9 9 15 22 25 27 32 37 39 36 36 35 36 36 37 39 42 43 42 40
7 8 7 17 16 11 9 29 15 9 19 20 20 32 28 15 8 6 10 9 8 9 10 9 11 13 19 25 28 30 30 33 38 36 34 36 37 36 36 38 41 42 43 41
6 3 4 13 5 16 18 7 21 24 21 16 16 23 21 16 6 11 5 4 10 9 9 9 9 13 24 24 26 27 28 33 33 32 35 36 36 34 35 38 39 41 42 42
14 8 5 5 6 5 8 5 7 10 20 21 24 24 25 26 3 20 10 9 7 6 6 8 17 19 19 21 24 26 28 29 30 30 32 35 36 35 36 36 37 38 38 38
15 15 12 10 11 9 8 4 3 5 13 7 16 23 22 4 5 14 4 2 6 5 9 12 13 9 11 15 21 26 25 25 24 25 28 32 33 33 34 34 35 38 39 38
5 5 18 17 14 7 5 4 3 9 8 4 9 16 7 7 4 2 6 3 4 5 9 10 4 2 6 14 22 21 22 21 23 24 25 26 27 29 29 30 31 33 32 33
8 6 7 6 9 13 9 3 7 5 1 5 3 4 4 5 4 2 6 6 6 6 6 4 5 6 9 14 19 18 18 18 20 23 25 25 26 25 26 26 26 27 29 28
4 4 2 4 2 4 6 2 2 4 4 4 4 5 4 4 4 4 3 3 2 3 3 2 9 11 10 13 16 17 17 17 20 22 22 23 23 24 25 27 28 27 28 27
7 7 9 11 14 15 9 5 6 4 5 4 3 4 5 5 4 3 2 3 2 1 3 8 13 13 11 11 11 10 18 18 21 22 22 22 22 23 23 23 24 24 24 22
2 5 6 5 7 5 8 9 6 8 6 5 4 5 7 6 3 4 2 1 1 2 4 8 12 13 13 13 13 12 16 18 19 18 19 20 21 22 22 22 23 25 25 28
4 4 3 3 6 4 6 3 3 8 9 7 6 3 2 4 4 4 3 2 3 6 10 13 13 16 13 13 13 14 15 16 17 17 18 20 22 23 23 22 16 17 15 17
Wind_Direction
14 121 204 213 193 142 141 196 232 241 243 203 232 250 268 268 243 260 251 245 244 237 247 231 231 224 218 216 214 213 209 205 201 196 189 187 186 182 181 198 196 199 201 191
50 233 231 130 167 183 171 269 267 276 250 197 270 257 258 262 237 239 247 242 240 238 224 210 216 216 213 213 213 209 208 201 200 200 197 195 191 187 191 187 182 183 182 178
179 211 152 164 155 161 213 201 229 230 312 241 322 267 237 264 252 259 254 245 245 233 236 208 195 207 210 212 211 206 204 202 199 200 200 196 189 185 180 179 179 177 182 182
235 242 140 173 199 163 251 202 200 223 42 255 21 291 234 248 257 241 258 242 244 239 231 192 196 199 206 210 208 204 197 202 202 202 203 196 189 175 186 180 178 175 178 183
236 171 179 188 198 171 235 135 168 175 188 1 268 277 237 157 263 259 257 257 244 239 214 210 201 209 208 204 199 200 194 199 205 204 205 200 190 194 188 179 176 175 175 181
235 163 167 196 128 162 138 85 59 59 103 266 198 190 182 174 211 251 267 269 288 263 238 226 212 204 196 199 197 198 192 195 205 206 205 200 201 192 182 179 176 174 172 175
149 212 194 156 95 57 145 106 309 321 351 246 73 217 255 282 244 227 249 287 47 26 223 213 182 173 175 184 186 189 189 190 205 207 207 206 204 196 192 184 181 175 173 174
185 270 169 193 192 170 197 163 169 223 222 279 17 239 248 235 262 257 265 309 33 276 264 238 206 185 180 184 187 187 186 192 201 206 205 205 204 201 192 187 186 182 179 177
170 265 219 118 123 158 197 205 175 75 110 356 223 281 282 265 286 277 241 143 255 264 280 230 194 196 192 188 191 192 186 195 200 203 206 207 207 202 196 192 189 187 183 176
214 272 14 132 127 50 158 168 91 345 206 257 267 268 230 260 243 257 298 277 306 301 248 203 197 199 202 197 192 192 196 197 201 204 207 207 204 203 200 195 194 191 185 179
141 151 305 150 206 170 141 193 128 140 157 191 302 263 209 224 221 235 197 156 267 263 216 214 213 201 202 201 195 196 196 203 206 208 207 206 205 203 203 201 199 194 186 182
204 166 197 208 249 202 61 199 155 148 216 240 176 265 152 175 97 195 226 222 236 220 200 187 188 191 195 203 204 201 201 204 211 209 206 206 206 204 204 204 201 195 189 184
174 188 240 321 346 350 202 202 204 121 98 224 153 262 347 259 239 241 234 195 212 229 189 171 197 193 202 202 206 208 208 206 209 207 205 205 206 205 205 204 201 196 193 187
166 181 200 230 213 146 194 196 201 202 219 217 233 251 239 219 247 245 231 223 225 223 208 216 219 213 208 208 207 208 211 212 210 206 206 205 208 206 207 207 203 197 194 191
205 225 200 241 356 184 255 212 200 206 223 198 249 244 256 245 231 245 232 228 219 225 226 221 219 216 209 208 210 211 212 212 210 206 206 206 210 208 206 204 202 198 196 194
173 272 181 267 240 220 255 244 219 219 227 233 251 251 255 227 239 209 229 252 259 235 230 232 221 211 213 211 211 206 206 207 211 204 203 206 209 206 205 202 198 197 196 195
192 192 198 251 245 232 238 232 219 225 230 219 233 242 266 268 232 250 259 238 241 242 243 239 226 221 221 213 207 206 205 205 203 204 202 203 205 201 201 200 195 194 196 195
170 144 235 250 213 225 243 186 218 224 232 223 260 258 264 262 244 241 234 224 254 242 246 248 245 233 235 227 216 211 201 204 197 197 201 202 200 193 195 196 194 195 196 196
215 214 241 243 248 312 299 240 156 176 240 221 226 248 261 266 5 277 209 223 259 285 291 276 278 262 248 224 210 199 193 197 192 193 196 199 200 191 192 189 190 193 195 197
218 221 237 245 245 244 220 219 188 109 240 199 197 230 243 240 255 268 139 328 289 291 293 296 305 274 226 205 195 186 181 185 189 192 194 200 199 194 192 190 190 195 198 200
189 199 220 229 246 267 257 202 190 166 231 197 193 217 184 197 210 7 327 316 302 312 328 331 331 198 188 179 181 172 176 180 193 194 192 193 196 198 197 193 192 196 195 200
202 207 210 212 233 235 170 88 188 218 125 153 199 189 185 226 280 289 294 310 336 331 344 11 97 112 151 172 173 170 173 182 188 187 185 186 192 192 194 192 194 197 196 196
232 200 251 223 244 330 248 255 191 157 156 204 195 198 196 210 222 187 215 277 301 325 343 85 127 117 139 165 178 164 168 174 174 173 176 181 186 193 198 197 196 193 199 194
235 193 219 274 257 260 269 258 230 220 207 187 240 185 188 205 196 231 220 222 204 238 140 136 125 113 108 151 165 171 167 170 168 168 172 177 179 184 190 194 194 184 187 194
274 144 192 235 281 310 257 234 237 212 215 214 206 196 213 200 195 184 182 180 161 96 75 136 133 130 126 141 137 151 166 168 167 169 172 175 175 175 177 185 198 207 216 218
193 229 244 264 245 222 251 255 204 211 208 206 199 211 216 199 159 132 119 129 130 111 122 120 120 125 123 128 128 144 167 184 175 163 170 176 174 175 178 178 172 197 213 215